STARLINK-1503

decayed
NORAD ID: 45745 Int'l Des: 2020-038 Owner: SPXS Country: US Constellation: starlink
LEOCIRCULAR

关于 STARLINK-1503

正在加载描述...

高度历史

Altitude vs Time

uPlot chart will show altitude changes over time

两行轨道根数

1 45745U 20038R 25135.31472693 .17840314 12544-4 31339-3 0 9999
2 45745 53.0230 82.1344 0007926 261.4790 237.1933 16.47241954272883
Epoch: May 15, 2025 • Age: 2954 hours

当前状态

Position data unavailable
发射日期 Jun 13, 2020
运行时间 5.2 years
衰减日期 May 15, 2025
类型 internet

技术详情

分类 Payload
质量 260.00 kg
干质量 248.00 kg
总质量 260.00 kg
长度 0.20 m
直径 2.80 m
跨度 9.00 m
形状 Box + pan
制造商 SPXS
平台类型 Starlink
阶段状态 Reentered
所有者/国家 SPXS/US

大型星座

Loading constellations...